Regional Weather Roundup
Issued by NWS Midland/Odessa, TX

Skip options and go directly to product.
Home | Oldest Version | Previous Version | Current Version | All | Text Only | Save Text | Print | Product List | Glossary On

Skip product version selection by date and time.   
286
ASUS44 KMAF 260610
RWRMAF
MIDLAND AREA WEATHER ROUNDUP
NATIONAL WEATHER SERVICE MIDLAND TX
100 AM CDT TUE JUL 26 2016

...IN SOUTHWEST TEXAS AND SOUTHEAST NEW MEXICO...

CITY           SKY/WX    TMP DP  RH WIND       PRES   REMARKS
ALPINE         CLEAR     79  54  41 SE5       30.20R
ANDREWS        FAIR      84  59  42 CALM      30.07R
ARTESIA        DRIZZLE   73  64  73 N18G25    30.13R
BIG SPRING     PTCLDY    84  61  45 E10       30.04S
CARLSBAD       MOCLDY    88  55  32 NE9       30.05R
DRYDEN           N/A     87  62  43 E8        29.96R
FORT STOCKTON  CLEAR     84  60  44 S6        30.02S
GUAD PASS      CLEAR     78  51  38 NE16      30.22S
HOBBS          CLOUDY    81  57  44 NE7       30.11S
MARFA          CLEAR     76  54  46 E12       30.18R
MIDLAND AIRPK  CLOUDY    87  57  35 E6        30.03S
MIDLAND INTL   CLOUDY    88  58  36 E9        30.02S
ODESSA         CLOUDY    87  57  35 SE8       30.04R
PECOS          CLEAR     86  57  36 E8        29.99S
PRESIDIO       FAIR      89  53  29 NE9       29.98R
SEMINOLE       CLOUDY    81  58  45 NE3       30.09S
SNYDER           N/A     84  64  51 SE10G17   30.03S
WINK           CLEAR     87  56  34 E8        30.00R
$$
...OTHER STATIONS IN TEXAS...

CITY           SKY/WX    TMP DP  RH WIND       PRES   REMARKS
ABILENE        CLEAR     79  67  66 S8        30.01R
AMARILLO       MOCLDY    73  59  61 W7        30.15S
AUSTIN         PTCLDY    77  76  96 CALM      29.92S
BROWNSVILLE    CLEAR     82  77  84 SE10      29.89F
CORPUS CHRISTI MOCLDY    82  78  88 S7        29.88F
DALLAS FTW     MOCLDY    80  71  74 S6        29.94R
DEL RIO        MOCLDY    85  69  58 E17G24    29.91R
EL PASO        PTCLDY    89  48  24 E13       30.04R
HOUSTON INT    MOCLDY    78  73  84 NW3       29.89F
LUBBOCK        MOCLDY    78  60  53 N12       30.10S
SAN ANGELO     CLEAR     79  67  66 S6        29.99F
SAN ANTONIO    CLOUDY    74  71  91 E5        29.94S
WACO           PTCLDY    74  72  93 CALM      29.93F
WICHITA FALLS  NOT AVBL
$$
...OTHER LOCATIONS IN NEW MEXICO...

CITY           SKY/WX    TMP DP  RH WIND       PRES   REMARKS
ALAMAGORDO     CLOUDY    84  54  34 NW13G18   30.09R
ALBUQUERQUE    CLOUDY    75  56  51 E25G37    30.25R
CANNON AFB     DRIZZLE   69  68  99 W6        30.23F
CLOVIS         CLOUDY    70  61  73 W13       30.22F
HOLLOMAN AFB   CLOUDY    84  54  35 VRB5      30.07R
ROSWELL        TSTM      71  62  73 N7        30.17R
RUIDOSO          N/A     66  55  68 SE9       30.41F
SANTA FE       CLOUDY    69  53  56 SE15      30.33S
TRUTH OR CONSE LGT RAIN  78  57  48 N13       30.17R
TUCUMCARI      LGT RAIN  69  64  84 SW13      30.18F
$$

USA.gov is the U.S. government's official web portal to all federal, state and local government web resources and services.